Regional Weather Roundup
Issued by NWS Charleston, SC

Current Version | Previous Version | Graphics & Text | Print | Product List | Glossary On
Versions: 1 2 3 4 5 6 7 8 9 10 11 12 13 14 15 16 17 18 19 20 21 22 23 24 25 26 27 28 29 30 31 32 33 34 35 36 37 38 39 40 41 42 43 44 45 46 47 48 49 50
000
ASUS42 KCHS 171127
RWRCHS

Regional Weather Roundup
National Weather Service Charleston SC
600 AM EST SUN DEC 17 2017

NOTE: "fair" indicates few or no clouds below 12,000 feet with no
significant weather and/or obstructions to visibility.

Not all stations are quality controlled. Use data with caution,
especially dewpoint observations.

SCZ027-030-031-034>040-042>050-171200-
...Southeast South Carolina...

CITY           SKY/WX    TMP DP  RH WIND       PRES   REMARKS
N Charleston   PTCLDY    35  34  96 CALM      30.30R
Waterfront Prk   N/A     42  41  96 CALM      30.14R
Mount Pleasant FAIR      32  32 100 CALM      30.30R FOG
Johns Island   FAIR      34  32  93 CALM      30.30R FOG
Pinopolis        N/A     37  37 100 CALM      30.22R
Moncks Corner  FAIR      28  28 100 CALM      30.29S FOG
Summerville    FAIR      30  30 100 CALM      30.30R
Beaufort MCAS  PTCLDY    35  34  96 CALM      30.30R FOG
Beaufort Arpt  FAIR      37  36  93 CALM      30.30R FOG
Hilton Head Is NOT AVBL
Walterboro     CLOUDY    30  28  93 CALM      30.30S
Allendale      FAIR      30  30 100 CALM      30.29R

...Southern Midlands and Pee Dee...

CITY           SKY/WX    TMP DP  RH WIND       PRES   REMARKS
Georgetown     FAIR      32  32 100 CALM      30.31R FOG
Kingstree      FAIR      28  28 100 CALM      30.29S
Orangeburg     CLOUDY    29  27  92 CALM      30.28S
Barnwell         N/A     30  28  93 CALM      30.29R
Aiken          FAIR      28  27  93 CALM      30.28S
Manning        FAIR      30  28  93 MISG      30.28F
Columbia       CLOUDY    28  26  92 SW3       30.27S
Sumter         CLOUDY    28  26  90 CALM      30.25F
Florence       CLOUDY    28  26  92 CALM      30.29F
Myrtle Beach   NOT AVBL
N Myrtle Beach CLOUDY    30  30 100 CALM      30.30R FOG

$$

GAZ063-065-086>088-099>101-113>116-118-119-134>141-150-171200-
...Southeast Georgia...

CITY           SKY/WX    TMP DP  RH WIND       PRES   REMARKS
Savannah Arpt  CLOUDY    35  34  96 CALM      30.30R
Hunter AAF     PTCLDY    37  34  90 CALM      30.28
Fort Stewart   CLOUDY    34  32  92 CALM        N/A
Statesboro     CLOUDY    33  33 100 CALM      30.27F
Sylvania       CLOUDY    33  33 100 CALM      30.28F FOG
Claxton        FAIR      33  32  97 CALM      30.28S

...CSRA, Central and far Southeast Georgia...

CITY           SKY/WX    TMP DP  RH WIND       PRES   REMARKS
Thomson        CLOUDY    28  27  94 CALM      30.30F FOG
Augusta-Bush   PTCLDY    27  26  96 CALM      30.28S
Augusta-Daniel CLOUDY    35  31  85 CALM      30.27S
Swainsboro     FAIR      34  34 100 CALM      30.28R
Vidalia        CLOUDY    37  36  93 CALM      30.28R
Eastman        FAIR      34  29  82 CALM      30.29S
Hazlehurst     FAIR      42  32  69 CALM      30.25S
Alma           PTCLDY    38  36  92 CALM      30.26S
Waycross       PTCLDY    40  38  91 CALM      30.26R
Jesup          NOT AVBL
Baxley         FAIR      34  34 100 CALM      30.27R
Brunswick      CLOUDY    41  39  93 NE3       30.26F
Saint Simons   CLOUDY    47  45  93 NE6       30.25F

$$

SCZ027-028-034-036>038-045-046-048>050-GAZ119-141-171200-
...Lake and Supplemental Coastal Observations...

STATION/POSITION TIME  TEMP    WIND        PRES    WAVE   SWELL
                       AIR SEA DIR/SP/G            HT/PER HT/PER/DIR
                 (UTC) (F)     (DEG/KT/KT) (MB)    (FT/S) (FT/S/D)
Winyah Bay       1045   34        CALM     1026.0S
Lake Murray      1120   38        CALM     1024.0
ACE Basin NERRS  1045   34        CALM     1025.0S
Fort Pulaski     1100   45 53  340/  1/  2 1026.1
Sapelo Island    1100   42      40/  5     1025.0

$$

ANZ835-935-AMZ111-154-330-350-352-354-370-450-454-472-171200-
...C-MAN and Buoy Observations...

STATION/POSITION TIME  TEMP    WIND        PRES    WAVE   SWELL
                       AIR SEA DIR/SP/G            HT/PER HT/PER/DIR
                 (UTC) (F)     (DEG/KT/KT) (MB)    (FT/S) (FT/S/D)
Buoy 41004       1110   57 72   20/  6/  8 1025.2
Buoy 41008       1050   56 58   80/  4/  4 1025.3R   1/10   2/130/10
Folly Beach CMAN 1100   43     310/  3/  4 1026.2R
Capers Nearshore 1108   44 55  360/  4/  8 1025.6R


STATION/POSITION TIME  TEMP    WIND        PRES    WAVE   SWELL
                       AIR SEA DIR/SP/G            HT/PER HT/PER/DIR
                 (UTC) (F)     (DEG/KT/KT) (MB)    (FT/S) (FT/S/D)
5E St. Marys GA  1100      62                N/A     1/10
Frying Pan Buoy  1110   55 68  310/  2/  4 1025.9
Buoy 41025       1110   52 72  310/ 10/ 14 1026.1
Cape Lookout NC  1100          330/  4/  5 1025.9F
Buoy 41002       1050   63 74   20/  4/  6 1025.6R   3/ 8   3/ 50/ 8
Buoy 41010       NOT AVBL
St Augustine FL  1100   63 63   50/  7/  7 1024.0F


$$




USA.gov is the U.S. government's official web portal to all federal, state and local government web resources and services.